GSAT-31

Last updated on July 6, 2021, 3:31 p.m. UTC

1 44035U 19007B   21187.08258909  .00000135  00000-0  00000+0 0  9991
2 44035   0.0894 104.2385 0000493  66.9587 190.6858  1.00271040  8852
UTC
Height (km)
Latitude
Longitude
Inclination
Orbital Period
UTC large
Height (km)
Speed (km/s)
/
Latitude / Longitude
Inclination (degrees)
Orbital Period (minutes)
Azimuth
Elevation
Range (km)
Doppler Factor
iOS Compass Heading
iOS Angle

Next 30 passes for location: Hong Kong

Rise time Rise Azimuth (degrees) Set time Set Azimuth (degrees) Duration Max altitude (degrees)

No matching passes for this satellites